Portada
METAR-TAF:

METAR-TAF

Aeroports :

Anchorage, Alaska, Estats Units d'Amèrica

latitud: 61-11N, longitud: 149-58W, altitud: 22 m

Observació

L'informe es va fer fa 27 minuts, a les 06:53 UTC
Vent 5 kt del Nord/Nord-Oest
Temperatura -10°C
Humitat 85%
Pressió 1005 hPa
Visibilitat: 12.9 km
Cel cobert a una alçada de 1200 ft
neu

METAR: PALH 230653Z 33005KT 8SM -SN OVC012 M10/M12 A2969 RMK AO2 SNB18 SLP053 P0000 T11001122

Hora: 22:20 (07:20 UTC)


TAF: manca

Observacions i pronòstics meteorològics de més de 4000 aeroports (METAR i TAF).

Les estacions disponibles són els punts grocs i vermells al mapa.

Posi el ratolí al punt desitjat per veure el nom de l'estació.

Feu clic per veure les observacions i els pronòstics meteorològics.

Per canviar el mapa: feu clic els botons verds amb una creu de color negre per apropar; al botó verd amb un guió per allunyar la imatge; o en les fletxes verdes per a mapes adjacents.


METAR-TAF: